Regional Weather Roundup
Issued by NWS

Home | Current Version | Previous Version | Graphics & Text | Print | Product List | Glossary On
Versions: 1 2 3 4 5 6 7 8 9 10 11 12 13 14 15 16 17 18 19 20 21 22 23 24 25 26 27
000
ASUS45 KSLC 201710
RWRUT

UTAH REGIONAL WEATHER ROUNDUP
NATIONAL WEATHER SERVICE SALT LAKE CITY UT
1000 AM MST FRI JAN 20 2017

UTZ001>011-023>025-201800-

NORTHERN UTAH

CITY           SKY/WX    TMP DP  RH WIND       PRES   REMARKS
BRIGHAM CITY     N/A     30  29  93 CALM      29.60F VSB 1/2
HILL AFB       LGT SNOW  32  30  93 E5        29.56F FOG     WCI  27
LOGAN          SNOW      27  27 100 CALM      29.59S VSB<1/4
OGDEN          LGT SNOW  30  29  96 CALM      29.57F VSB 3/4
SALT LAKE CITY LGT SNOW  32  32 100 SE7       29.58F FOG     WCI  26
TOOELE VALLEY  FOG       30  30 100 CALM      29.60S VSB<1/4
WENDOVER       CLOUDY    23  21  93 W3        29.58F VSB 1
HEBER CITY     LGT SNOW  30  27  86 CALM      29.56F
WEST JORDAN    CLOUDY    32  32 100 S9        29.58F WCI  24

$$

UTZ011>015-024>027-201800-

CENTRAL/NORTHEAST UTAH

CITY           SKY/WX    TMP DP  RH WIND       PRES   REMARKS
PROVO AIRPORT  LGT SNOW  34  32  93 CALM      29.61F FOG
MOAB/CANYONLAN CLOUDY    33  31  92 N7        29.63F WCI  27
DELTA          MOSUNNY   28  28 100 MISG      29.59S
PRICE          CLOUDY    25  25 100 SE3       29.60S
RICHFIELD      SUNNY     28  28 100 NE2       29.63S
ROOSEVELT      LGT SNOW  19  18  93 CALM      29.68S
VERNAL         CLOUDY    20  15  81 CALM      29.65S HAZE

$$

UTZ013>016-019>022-027-201800-

SOUTHERN UTAH

CITY           SKY/WX    TMP DP  RH WIND       PRES   REMARKS
BRYCE CANYON   LGT SNOW  22  20  92 SE10      29.61S FOG     WCI  11
CEDAR CITY     PTSUNNY   27  23  85 NE5       29.56F WCI  22
MILFORD        CLOUDY    32  28  85 S5        29.57F WCI  27
ST GEORGE      CLOUDY    37  34  87 S5        29.67R WCI  34
HANKSVILLE     CLOUDY    32  32 100 MISG      29.67S VSB<1/4
KANAB          PTSUNNY   34  32  93 CALM      29.70F
BLANDING       PTSUNNY   30  29  99 MISG      29.76R

$$

REGIONAL REPORTS     COLORADO/ARIZONA

CITY           SKY/WX    TMP DP  RH WIND       PRES   REMARKS
CRAIG, CO      FLURRIES  27  23  85 W7        29.59R WCI  19
GRAND JUNCTION LGT SNOW  32  32 100 W6        29.63R FOG     WCI  26
RIFLE, CO      CLOUDY    32  31  96 CALM      29.59S FOG
MONTROSE, CO   CLOUDY    31  30  96 NE5       29.64R WCI  26
CORTEZ, CO     FLURRIES  32  27  81 SW9       29.71S WCI  24
COLORADO CITY  CLOUDY    34  32  93 SE6       29.67S WCI  29
PAGE, AZ       CLOUDY    40  26  57 CALM      29.66F
GRAND CANYON   CLOUDY    30  29  96 SW9       29.67F WCI  22
KINGMAN, AZ    CLOUDY    43  34  70 VRB7      29.69R
FLAGSTAFF, AZ  CLOUDY    28  26  92 SW16      29.69S WCI  16

$$

REGIONAL REPORTS    NEVADA/IDAHO/WYOMING

CITY           SKY/WX    TMP DP  RH WIND       PRES   REMARKS
LAS VEGAS, NV  CLOUDY    48  38  68 S7        29.59F
ELY, NY        FLURRIES  27  24  89 S12       29.47F WCI  17
ELKO, NV       PTSUNNY   24  19  81 E7        29.44F WCI  16
POCATELLO, ID  MOSUNNY   27  21  78 N3        29.54F
BURLEY, ID     SUNNY     30  23  75 CALM      29.48F
FORT BRIDGER,  CLOUDY    27  23  84 SW6       29.58S WCI  20
EVANSTON, WY   CLOUDY    23  21  92 S3        29.54F
ROCK SPRINGS,  FOG       18  14  84 NE3       29.55S VSB<1/4
KEMMERER, WY     N/A    N/A N/A N/A CALM      29.54

$$




USA.gov is the U.S. government's official web portal to all federal, state and local government web resources and services.